DW4725 Weather Reports


Display with metric or nautical units.
time (UTC)temp
F
wind
direction
speed
MPH
gust
MPH
rain 1hr
in
rain 24hr
in
rain mn
in
humidity
%
barometer
mb
20260902000035 58 113 0.0 0.0 0.00 0.00 0.00 77 1022.6
20260901235829 58 113 0.0 0.0 0.00 0.00 0.00 77 1022.6
20260901235623 58 113 0.0 0.0 0.00 0.00 0.00 77 1022.5
20260901235423 58 113 0.0 0.0 0.00 0.00 0.00 77 1022.6
20260901235221 58 113 0.0 1.0 0.00 0.00 0.00 77 1022.5
20260901235021 58 118 0.0 1.0 0.00 0.00 0.00 78 1022.5
20260901234810 58 126 0.0 6.0 0.00 0.00 0.00 78 1022.5
20260901234600 58 139 0.0 6.0 0.00 0.00 0.00 78 1022.4
20260901234401 58 91 0.0 6.0 0.00 0.00 0.00 79 1022.5
20260901234157 58 86 1.0 6.0 0.00 0.00 0.00 79 1022.5
20260901233949 58 106 1.0 6.0 0.00 0.00 0.00 79 1022.4
20260901233744 58 129 1.0 6.0 0.00 0.00 0.00 79 1022.4
20260901233536 58 79 2.0 6.0 0.00 0.00 0.00 79 1022.4
20260901233333 58 97 2.0 6.0 0.00 0.00 0.00 79 1022.4
20260901233122 58 98 2.0 6.0 0.00 0.00 0.00 79 1022.4
20260901232553 58 125 1.0 5.0 0.00 0.00 0.00 79 1022.3
20260901232345 58 116 1.0 3.0 0.00 0.00 0.00 78 1022.3
20260901232138 58 98 0.0 3.0 0.00 0.00 0.00 78 1022.4
20260901231928 58 104 0.0 3.0 0.00 0.00 0.00 77 1022.3
20260901231728 59 56 0.0 2.0 0.00 0.00 0.00 76 1022.3
20260901231518 59 65 0.0 1.0 0.00 0.00 0.00 76 1022.3
20260901231310 59 158 0.0 1.0 0.00 0.00 0.00 76 1022.3
20260901231103 58 154 0.0 1.0 0.00 0.00 0.00 76 1022.3
20260901230901 58 122 0.0 4.0 0.00 0.00 0.00 77 1022.3
20260901230655 58 6 1.0 4.0 0.00 0.00 0.00 78 1022.2
20260901230445 58 75 2.0 7.0 0.00 0.00 0.00 78 1022.3
20260901230238 58 103 2.0 7.0 0.00 0.00 0.00 78 1022.2
20260901230033 59 125 3.0 7.0 0.00 0.00 0.00 78 1022.3
20260901225822 59 147 3.0 7.0 0.00 0.00 0.00 78 1022.3
20260901225612 59 133 3.0 7.0 0.00 0.00 0.00 78 1022.3
20260901225409 58 105 4.0 7.0 0.00 0.00 0.00 78 1022.3
20260901225201 58 117 4.0 7.0 0.00 0.00 0.00 79 1022.3
20260901224955 58 94 4.0 7.0 0.00 0.00 0.00 79 1022.3
20260901224756 58 107 4.0 7.0 0.00 0.00 0.00 79 1022.2
20260901224550 58 129 4.0 7.0 0.00 0.00 0.00 80 1022.3
20260901224347 58 110 4.0 6.0 0.00 0.00 0.00 80 1022.3
20260901224138 58 110 4.0 7.0 0.00 0.00 0.00 80 1022.3
20260901223929 58 106 4.0 7.0 0.00 0.00 0.00 80 1022.3
20260901223404 58 115 4.0 7.0 0.00 0.00 0.00 80 1022.3
20260901223156 58 131 4.0 7.0 0.00 0.00 0.00 80 1022.2
20260901222946 58 124 4.0 7.0 0.00 0.00 0.00 79 1022.2
20260901222742 58 107 4.0 7.0 0.00 0.00 0.00 79 1022.3
20260901222541 58 121 4.0 7.0 0.00 0.00 0.00 79 1022.2
20260901222331 58 98 4.0 7.0 0.00 0.00 0.00 79 1022.3
20260901222126 58 119 4.0 7.0 0.00 0.00 0.00 79 1022.2
20260901221926 58 112 4.0 7.0 0.00 0.00 0.00 79 1022.2
20260901221726 58 92 4.0 7.0 0.00 0.00 0.00 79 1022.2
20260901221526 58 109 4.0 7.0 0.00 0.00 0.00 79 1022.1
20260901221319 58 136 4.0 7.0 0.00 0.00 0.00 79 1022.2
20260901221111 59 108 4.0 6.0 0.00 0.00 0.00 78 1022.1
20260901220902 59 108 4.0 7.0 0.00 0.00 0.00 78 1022.2
20260901220703 59 127 4.0 7.0 0.00 0.00 0.00 78 1022.3
20260901220500 59 124 4.0 7.0 0.00 0.00 0.00 78 1022.3
20260901220255 59 127 4.0 7.0 0.00 0.00 0.00 78 1022.3
20260901215737 59 115 4.0 7.0 0.00 0.00 0.00 77 1022.3
20260901215527 59 125 4.0 7.0 0.00 0.00 0.00 77 1022.3
20260901215318 59 99 4.0 7.0 0.00 0.00 0.00 77 1022.4
20260901215110 59 100 4.0 7.0 0.00 0.00 0.00 77 1022.4
20260901214900 59 117 4.0 6.0 0.00 0.00 0.00 77 1022.3
20260901214656 59 113 4.0 6.0 0.00 0.00 0.00 77 1022.2
20260901214456 59 109 3.0 6.0 0.00 0.00 0.00 77 1022.4
20260901214248 59 105 3.0 6.0 0.00 0.00 0.00 77 1022.4
20260901214041 59 76 3.0 6.0 0.00 0.00 0.00 77 1022.3
20260901213835 59 103 3.0 6.0 0.00 0.00 0.00 77 1022.4
20260901213631 60 134 4.0 6.0 0.00 0.00 0.00 77 1022.4
20260901213425 60 117 4.0 6.0 0.00 0.00 0.00 77 1022.4
20260901213219 60 111 4.0 6.0 0.00 0.00 0.00 77 1022.3
20260901213017 60 82 4.0 6.0 0.00 0.00 0.00 77 1022.3
20260901212809 60 113 4.0 6.0 0.00 0.00 0.00 77 1022.2
20260901212607 60 139 3.0 5.0 0.00 0.00 0.00 77 1022.3
20260901212404 60 134 3.0 5.0 0.00 0.00 0.00 77 1022.3
20260901212157 60 126 3.0 5.0 0.00 0.00 0.00 77 1022.3
20260901211955 60 120 3.0 5.0 0.00 0.00 0.00 77 1022.3
20260901211439 60 116 3.0 5.0 0.00 0.00 0.00 76 1022.4
20260901211234 60 103 3.0 5.0 0.00 0.00 0.00 76 1022.4
20260901211029 60 106 3.0 5.0 0.00 0.00 0.00 76 1022.5
20260901210830 60 80 3.0 5.0 0.00 0.00 0.00 75 1022.5
20260901210307 60 119 3.0 5.0 0.00 0.00 0.00 75 1022.5
20260901210058 61 112 3.0 5.0 0.00 0.00 0.00 75 1022.5
20260901205849 61 110 2.0 5.0 0.00 0.00 0.00 75 1022.6
20260901205642 61 115 2.0 4.0 0.00 0.00 0.00 75 1022.5
20260901205438 61 124 2.0 4.0 0.00 0.00 0.00 74 1022.5
20260901205233 61 125 2.0 4.0 0.00 0.00 0.00 74 1022.6
20260901205027 61 114 2.0 4.0 0.00 0.00 0.00 74 1022.6
20260901204823 61 116 2.0 4.0 0.00 0.00 0.00 74 1022.6
20260901204613 61 119 2.0 4.0 0.00 0.00 0.00 74 1022.6
20260901204406 61 129 2.0 4.0 0.00 0.00 0.00 74 1022.6
20260901204204 61 101 2.0 4.0 0.00 0.00 0.00 73 1022.6
20260901204000 61 136 2.0 4.0 0.00 0.00 0.00 73 1022.6
20260901203751 61 119 2.0 4.0 0.00 0.00 0.00 73 1022.6
20260901202553 62 127 1.0 3.0 0.00 0.00 0.00 71 1022.5
20260901202347 62 123 1.0 3.0 0.00 0.00 0.00 71 1022.6
20260901202142 62 107 1.0 2.0 0.00 0.00 0.00 71 1022.6
20260901201940 62 116 1.0 2.0 0.00 0.00 0.00 71 1022.6
20260901201738 62 113 1.0 2.0 0.00 0.00 0.00 71 1022.5
20260901201528 63 105 1.0 2.0 0.00 0.00 0.00 71 1022.6
20260901201324 63 103 1.0 2.0 0.00 0.00 0.00 70 1022.6
20260901200800 63 115 1.0 2.0 0.00 0.00 0.00 70 1022.6
20260901195912 63 100 1.0 2.0 0.00 0.00 0.00 69 1022.6
20260901195713 63 122 1.0 2.0 0.00 0.00 0.00 69 1022.5
20260901195513 63 113 1.0 2.0 0.00 0.00 0.00 69 1022.5
20260901195306 63 93 0.0 2.0 0.00 0.00 0.00 69 1022.5
20260901195102 63 107 0.0 2.0 0.00 0.00 0.00 69 1022.5
20260901194851 63 129 0.0 2.0 0.00 0.00 0.00 69 1022.5
20260901194645 63 110 1.0 2.0 0.00 0.00 0.00 69 1022.4
20260901194120 64 93 1.0 2.0 0.00 0.00 0.00 68 1022.3
20260901193912 64 113 0.0 2.0 0.00 0.00 0.00 68 1022.4
20260901193353 64 113 0.0 1.0 0.00 0.00 0.00 68 1022.3
20260901192510 64 113 0.0 1.0 0.00 0.00 0.00 67 1022.3
20260901191945 64 113 0.0 1.0 0.00 0.00 0.00 67 1022.2
20260901191742 64 113 0.0 1.0 0.00 0.00 0.00 67 1022.2
20260901191535 64 113 0.0 0.0 0.00 0.00 0.00 67 1022.2
20260901191326 64 113 0.0 0.0 0.00 0.00 0.00 67 1022.2
20260901190809 64 113 0.0 1.0 0.00 0.00 0.00 68 1022.1
20260901190601 64 113 0.0 1.0 0.00 0.00 0.00 68 1022.1
20260901190351 64 112 0.0 1.0 0.00 0.00 0.00 67 1022.1
20260901190142 64 108 0.0 1.0 0.00 0.00 0.00 67 1022.0
20260901185934 65 68 0.0 1.0 0.00 0.00 0.00 66 1022.0
20260901185728 65 68 0.0 1.0 0.00 0.00 0.00 66 1022.1
20260901185526 65 68 0.0 1.0 0.00 0.00 0.00 66 1022.1
20260901185318 65 109 0.0 0.0 0.00 0.00 0.00 66 1022.1
20260901185117 65 109 0.0 0.0 0.00 0.00 0.00 66 1022.0
20260901184914 65 109 0.0 0.0 0.00 0.00 0.00 66 1022.0
20260901184704 65 109 0.0 0.0 0.00 0.00 0.00 66 1022.0
20260901184501 65 109 0.0 0.0 0.00 0.00 0.00 67 1022.0
20260901184254 64 109 0.0 1.0 0.00 0.00 0.00 67 1022.0
20260901184052 65 109 0.0 1.0 0.00 0.00 0.00 67 1022.0
20260901183851 65 109 0.0 1.0 0.00 0.00 0.00 67 1021.9
20260901183642 65 109 0.0 1.0 0.00 0.00 0.00 67 1021.9
20260901183441 65 109 0.0 1.0 0.00 0.00 0.00 67 1022.0
20260901183239 65 109 0.0 1.0 0.00 0.00 0.00 66 1022.0
20260901183035 65 91 0.0 0.0 0.00 0.00 0.00 66 1021.9
20260901182512 65 90 0.0 0.0 0.00 0.00 0.00 65 1021.9
20260901182308 66 90 0.0 0.0 0.00 0.00 0.00 65 1021.9
20260901182107 66 81 0.0 0.0 0.00 0.00 0.00 65 1022.0
20260901181907 66 81 0.0 0.0 0.00 0.00 0.00 65 1022.0
20260901181704 66 81 0.0 0.0 0.00 0.00 0.00 65 1021.9
20260901181456 66 81 0.0 0.0 0.00 0.00 0.00 65 1021.9
20260901181248 66 78 0.0 0.0 0.00 0.00 0.00 64 1022.0
20260901181038 66 78 0.0 0.0 0.00 0.00 0.00 64 1021.9
20260901180838 66 60 0.0 0.0 0.00 0.00 0.00 64 1021.9
20260901180638 66 60 0.0 0.0 0.00 0.00 0.00 64 1022.0
20260901180112 66 60 0.0 0.0 0.00 0.00 0.00 64 1022.0
20260901175907 66 60 0.0 0.0 0.00 0.00 0.00 64 1021.9
20260901175657 67 60 0.0 0.0 0.00 0.00 0.00 64 1021.9
20260901175451 67 60 0.0 0.0 0.00 0.00 0.00 64 1021.9
20260901175243 67 60 0.0 0.0 0.00 0.00 0.00 64 1021.8
20260901174724 67 60 0.0 0.0 0.00 0.00 0.00 64 1021.9
20260901174514 67 60 0.0 0.0 0.00 0.00 0.00 63 1021.9
20260901174308 67 60 0.0 0.0 0.00 0.00 0.00 63 1021.9
20260901174101 67 60 0.0 0.0 0.00 0.00 0.00 63 1021.9
20260901173859 68 60 0.0 0.0 0.00 0.00 0.00 63 1021.9
20260901173656 68 60 0.0 0.0 0.00 0.00 0.00 62 1021.9
20260901173451 68 58 0.0 0.0 0.00 0.00 0.00 62 1021.9
20260901173248 68 58 0.0 0.0 0.00 0.00 0.00 61 1021.8
20260901173043 68 57 0.0 0.0 0.00 0.00 0.00 61 1021.9
20260901172838 68 58 0.0 0.0 0.00 0.00 0.00 61 1021.8
20260901172636 68 58 0.0 0.0 0.00 0.00 0.00 61 1021.9
20260901172432 68 58 0.0 0.0 0.00 0.00 0.00 61 1021.9
20260901172232 68 58 0.0 0.0 0.00 0.00 0.00 60 1021.9
20260901172023 68 58 0.0 0.0 0.00 0.00 0.00 60 1021.8
20260901171820 68 58 0.0 0.0 0.00 0.00 0.00 61 1021.9
20260901171610 68 58 0.0 0.0 0.00 0.00 0.00 60 1021.9
20260901171048 68 58 0.0 0.0 0.00 0.00 0.00 61 1021.9
20260901170839 68 58 0.0 0.0 0.00 0.00 0.00 60 1021.9
20260901170631 68 47 0.0 2.0 0.00 0.00 0.00 61 1021.9
20260901170428 68 46 0.0 2.0 0.00 0.00 0.00 61 1021.9
20260901170226 68 45 0.0 2.0 0.00 0.00 0.00 61 1021.8
20260901170024 68 46 0.0 2.0 0.00 0.00 0.00 61 1021.9
20260901165818 69 46 0.0 2.0 0.00 0.00 0.00 61 1021.9
20260901165614 69 45 0.0 2.0 0.00 0.00 0.00 61 1022.0
20260901165410 69 45 0.0 2.0 0.00 0.00 0.00 60 1022.1
20260901165210 69 46 0.0 2.0 0.00 0.00 0.00 59 1022.0
20260901164959 69 53 0.0 2.0 0.00 0.00 0.00 60 1021.9
20260901164751 69 51 0.0 2.0 0.00 0.00 0.00 59 1022.0
20260901164544 69 51 0.0 5.0 0.00 0.00 0.00 59 1022.0
20260901164335 69 77 1.0 5.0 0.00 0.00 0.00 59 1022.0
20260901164127 70 45 1.0 5.0 0.00 0.00 0.00 59 1022.1
20260901163928 70 50 1.0 5.0 0.00 0.00 0.00 60 1022.0
20260901163723 70 48 1.0 5.0 0.00 0.00 0.00 60 1022.0
20260901163520 70 52 2.0 5.0 0.00 0.00 0.00 59 1022.0
20260901163311 70 60 1.0 5.0 0.00 0.00 0.00 60 1022.0
20260901162738 70 43 1.0 5.0 0.00 0.00 0.00 58 1022.0
20260901162528 70 52 1.0 4.0 0.00 0.00 0.00 59 1022.1
20260901162321 70 50 1.0 4.0 0.00 0.00 0.00 58 1022.0
20260901162117 70 47 1.0 4.0 0.00 0.00 0.00 58 1022.1
20260901161909 70 49 0.0 4.0 0.00 0.00 0.00 58 1022.0
20260901161710 71 74 0.0 4.0 0.00 0.00 0.00 56 1021.9
20260901161501 71 70 0.0 4.0 0.00 0.00 0.00 55 1022.0
20260901160928 71 252 1.0 4.0 0.00 0.00 0.00 58 1022.0
20260901160728 71 54 1.0 4.0 0.00 0.00 0.00 56 1022.0
20260901160519 71 53 0.0 3.0 0.00 0.00 0.00 56 1022.1
20260901155954 72 42 0.0 3.0 0.00 0.00 0.00 54 1022.0
20260901155750 72 55 0.0 1.0 0.00 0.00 0.00 55 1022.0
20260901155541 71 56 0.0 0.0 0.00 0.00 0.00 56 1022.0
20260901155342 71 56 0.0 3.0 0.00 0.00 0.00 54 1022.0
20260901155131 71 37 0.0 3.0 0.00 0.00 0.00 55 1022.0
20260901154608 72 37 0.0 2.0 0.00 0.00 0.00 55 1022.1
20260901154050 71 277 0.0 3.0 0.00 0.00 0.00 55 1022.0
20260901153849 71 200 0.0 3.0 0.00 0.00 0.00 56 1021.9
20260901153648 71 50 0.0 3.0 0.00 0.00 0.00 54 1022.0
20260901153442 71 51 0.0 3.0 0.00 0.00 0.00 55 1022.0
20260901153243 71 51 0.0 3.0 0.00 0.00 0.00 56 1022.0
20260901152715 71 47 0.0 3.0 0.00 0.00 0.00 55 1022.1
20260901152508 71 275 0.0 3.0 0.00 0.00 0.00 55 1022.0
20260901152307 72 273 0.0 3.0 0.00 0.00 0.00 52 1022.0
20260901152104 72 290 0.0 3.0 0.00 0.00 0.00 54 1022.0
20260901151900 72 98 0.0 2.0 0.00 0.00 0.00 55 1022.0
20260901151654 72 91 0.0 2.0 0.00 0.00 0.00 55 1022.0
20260901151445 72 287 0.0 2.0 0.00 0.00 0.00 54 1021.9
20260901151237 72 278 0.0 3.0 0.00 0.00 0.00 52 1022.1
20260901151029 72 264 0.0 3.0 0.00 0.00 0.00 54 1022.0
20260901150826 72 269 0.0 3.0 0.00 0.00 0.00 54 1022.0
20260901150620 72 284 0.0 3.0 0.00 0.00 0.00 56 1022.1
20260901150410 72 213 0.0 3.0 0.00 0.00 0.00 55 1021.9
20260901150201 72 259 0.0 2.0 0.00 0.00 0.00 56 1022.0
20260901145957 72 39 0.0 2.0 0.00 0.00 0.00 57 1022.0
20260901145756 72 51 0.0 2.0 0.00 0.00 0.00 55 1022.0
20260901145553 71 212 0.0 2.0 0.00 0.00 0.00 55 1022.0
20260901145351 71 271 0.0 2.0 0.00 0.00 0.00 54 1022.1
20260901145148 71 255 0.0 2.0 0.00 0.00 0.00 56 1022.1
20260901144938 71 293 0.0 2.0 0.00 0.00 0.00 56 1022.1
20260901144740 71 291 0.0 2.0 0.00 0.00 0.00 54 1022.1
20260901144531 71 306 0.0 2.0 0.00 0.00 0.00 53 1022.0
20260901144332 71 176 0.0 2.0 0.00 0.00 0.00 53 1022.1
20260901144132 72 267 0.0 2.0 0.00 0.00 0.00 53 1022.0
20260901143929 72 257 0.0 2.0 0.00 0.00 0.00 54 1022.0
20260901143410 72 288 0.0 4.0 0.00 0.00 0.00 55 1022.1
20260901143209 72 274 0.0 4.0 0.00 0.00 0.00 54 1022.1
20260901143005 72 288 0.0 4.0 0.00 0.00 0.00 55 1022.0
20260901142756 71 260 0.0 4.0 0.00 0.00 0.00 56 1022.1
20260901142548 71 145 0.0 4.0 0.00 0.00 0.00 54 1022.0
20260901142341 71 288 1.0 4.0 0.00 0.00 0.00 54 1022.1
20260901142139 71 219 1.0 4.0 0.00 0.00 0.00 59 1022.0
20260901141939 71 211 1.0 4.0 0.00 0.00 0.00 57 1022.0
20260901141729 71 295 1.0 4.0 0.00 0.00 0.00 55 1022.0
20260901141526 71 283 0.0 4.0 0.00 0.00 0.00 57 1021.9
20260901141316 71 311 0.0 3.0 0.00 0.00 0.00 56 1022.1
20260901141114 71 70 0.0 5.0 0.00 0.00 0.00 55 1022.1
20260901140907 71 285 0.0 5.0 0.00 0.00 0.00 58 1022.1
20260901140658 70 10 0.0 5.0 0.00 0.00 0.00 56 1022.1
20260901140140 70 296 1.0 4.0 0.00 0.00 0.00 55 1022.1
20260901135936 70 314 0.0 4.0 0.00 0.00 0.00 56 1022.2
20260901135404 70 280 1.0 4.0 0.00 0.00 0.00 56 1022.3
20260901135200 71 305 0.0 3.0 0.00 0.00 0.00 57 1022.2
20260901134637 70 345 0.0 3.0 0.00 0.00 0.00 56 1022.2
20260901134433 71 279 0.0 2.0 0.00 0.00 0.00 57 1022.3
20260901133908 71 291 0.0 5.0 0.00 0.00 0.00 55 1022.3
20260901133706 72 273 0.0 4.0 0.00 0.00 0.00 56 1022.3
20260901133501 72 266 0.0 4.0 0.00 0.00 0.00 56 1022.3
20260901133251 71 46 0.0 4.0 0.00 0.00 0.00 57 1022.2
20260901133049 71 252 0.0 4.0 0.00 0.00 0.00 58 1022.2
20260901132530 71 262 0.0 3.0 0.00 0.00 0.00 55 1022.3
20260901132319 71 262 0.0 3.0 0.00 0.00 0.00 56 1022.4
20260901132109 71 274 0.0 3.0 0.00 0.00 0.00 56 1022.4
20260901131904 71 297 0.0 4.0 0.00 0.00 0.00 58 1022.3
20260901131656 71 274 0.0 4.0 0.00 0.00 0.00 56 1022.4
20260901131446 71 249 0.0 4.0 0.00 0.00 0.00 56 1022.4
20260901131244 71 71 0.0 4.0 0.00 0.00 0.00 57 1022.4
20260901131044 71 230 0.0 4.0 0.00 0.00 0.00 58 1022.5
20260901130835 71 143 0.0 4.0 0.00 0.00 0.00 56 1022.5
20260901130633 71 288 0.0 4.0 0.00 0.00 0.00 56 1022.5
20260901130428 71 286 0.0 4.0 0.00 0.00 0.00 56 1022.5
20260901130227 70 267 0.0 4.0 0.00 0.00 0.00 59 1022.6
20260901125023 70 293 1.0 3.0 0.00 0.00 0.00 59 1022.8
20260901124819 70 288 1.0 3.0 0.00 0.00 0.00 59 1022.8
20260901124612 70 290 1.0 5.0 0.00 0.00 0.00 57 1022.8
20260901124047 71 253 0.0 5.0 0.00 0.00 0.00 59 1022.8
20260901123844 70 276 0.0 5.0 0.00 0.00 0.00 60 1022.9
20260901123644 70 56 0.0 3.0 0.00 0.00 0.00 59 1022.9
20260901123444 70 283 0.0 3.0 0.00 0.00 0.00 60 1022.9
20260901123244 70 257 0.0 3.0 0.00 0.00 0.00 60 1022.8
20260901123040 70 330 0.0 3.0 0.00 0.00 0.00 60 1022.9
20260901122519 69 262 0.0 2.0 0.00 0.00 0.00 60 1022.9
20260901122311 69 256 1.0 2.0 0.00 0.00 0.00 59 1022.9
20260901122109 69 239 1.0 1.0 0.00 0.00 0.00 59 1022.9
20260901121541 70 292 1.0 5.0 0.00 0.00 0.00 58 1022.8
20260901121341 70 316 0.0 3.0 0.00 0.00 0.00 58 1022.8
20260901121133 70 265 0.0 3.0 0.00 0.00 0.00 59 1022.9
20260901120926 70 277 0.0 3.0 0.00 0.00 0.00 60 1022.9
20260901120724 70 324 0.0 3.0 0.00 0.00 0.00 59 1022.8
20260901120149 70 285 0.0 3.0 0.00 0.00 0.00 60 1022.9
20260901115945 69 124 0.0 3.0 0.00 0.00 0.00 58 1022.9
20260901115736 69 234 0.0 3.0 0.00 0.00 0.00 59 1023.0
20260901115535 69 282 0.0 3.0 0.00 0.00 0.00 61 1022.9
20260901115330 69 243 0.0 3.0 0.00 0.00 0.00 61 1022.9
20260901114805 69 298 0.0 4.0 0.00 0.00 0.00 60 1023.0
20260901114603 69 248 0.0 4.0 0.00 0.00 0.00 61 1023.0
20260901114359 69 271 0.0 4.0 0.00 0.00 0.00 60 1022.9
20260901114156 69 79 1.0 4.0 0.00 0.00 0.00 62 1023.0
20260901113949 68 295 1.0 5.0 0.00 0.00 0.00 63 1023.0
20260901113748 68 276 0.0 5.0 0.00 0.00 0.00 62 1023.0
20260901113539 68 288 0.0 5.0 0.00 0.00 0.00 62 1023.0
20260901113020 69 232 1.0 5.0 0.00 0.00 0.00 64 1023.0
20260901112140 68 44 0.0 5.0 0.00 0.00 0.00 62 1023.0
20260901111930 68 248 0.0 4.0 0.00 0.00 0.00 63 1023.0
20260901111729 68 273 0.0 4.0 0.00 0.00 0.00 65 1023.0
20260901111519 68 289 0.0 4.0 0.00 0.00 0.00 63 1023.0
20260901110951 68 242 1.0 4.0 0.00 0.00 0.00 64 1023.0
20260901110742 68 299 1.0 4.0 0.00 0.00 0.00 63 1023.0
20260901110542 69 260 0.0 4.0 0.00 0.00 0.00 61 1023.1
20260901110020 69 326 0.0 2.0 0.00 0.00 0.00 61 1023.1
20260901105816 69 269 0.0 1.0 0.00 0.00 0.00 61 1023.2
20260901104924 68 281 0.0 4.0 0.00 0.00 0.00 62 1023.1
20260901104718 68 312 1.0 4.0 0.00 0.00 0.00 60 1023.0
20260901104152 68 307 0.0 4.0 0.00 0.00 0.00 60 1023.2
20260901103950 68 249 0.0 4.0 0.00 0.00 0.00 61 1023.2
20260901103747 68 46 0.0 3.0 0.00 0.00 0.00 61 1023.2
20260901102902 67 129 0.0 3.0 0.00 0.00 0.00 60 1023.3
20260901102658 67 258 0.0 3.0 0.00 0.00 0.00 63 1023.3
20260901102453 67 240 0.0 3.0 0.00 0.00 0.00 63 1023.3
20260901102249 67 288 0.0 3.0 0.00 0.00 0.00 60 1023.4
20260901102042 67 278 0.0 5.0 0.00 0.00 0.00 62 1023.3
20260901101520 67 280 0.0 5.0 0.00 0.00 0.00 63 1023.3
20260901101316 67 284 0.0 5.0 0.00 0.00 0.00 64 1023.3
20260901100743 67 248 0.0 5.0 0.00 0.00 0.00 62 1023.3
20260901100532 67 256 0.0 5.0 0.00 0.00 0.00 63 1023.4
20260901100331 67 303 0.0 5.0 0.00 0.00 0.00 61 1023.4
20260901100121 68 298 0.0 3.0 0.00 0.00 0.00 62 1023.4
20260901095914 68 250 0.0 0.0 0.00 0.00 0.00 65 1023.5
20260901095714 68 63 0.0 0.0 0.00 0.00 0.00 66 1023.4
20260901095514 67 63 0.0 4.0 0.00 0.00 0.00 65 1023.4
20260901095311 67 266 0.0 1.0 0.00 0.00 0.00 65 1023.4
20260901095110 67 69 0.0 1.0 0.00 0.00 0.00 64 1023.4
20260901094909 67 290 0.0 2.0 0.00 0.00 0.00 66 1023.4
20260901094659 67 291 0.0 2.0 0.00 0.00 0.00 64 1023.4
20260901094448 67 48 0.0 2.0 0.00 0.00 0.00 65 1023.5
20260901094238 67 283 0.0 2.0 0.00 0.00 0.00 65 1023.5
20260901094031 67 231 0.0 2.0 0.00 0.00 0.00 66 1023.4
20260901093823 67 194 0.0 2.0 0.00 0.00 0.00 69 1023.5
20260901093616 66 247 0.0 1.0 0.00 0.00 0.00 68 1023.5
20260901093406 66 240 0.0 0.0 0.00 0.00 0.00 70 1023.4
20260901093205 66 356 0.0 3.0 0.00 0.00 0.00 67 1023.4
20260901093000 65 356 0.0 3.0 0.00 0.00 0.00 68 1023.6
20260901092757 65 74 1.0 3.0 0.00 0.00 0.00 67 1023.6
20260901092237 65 50 0.0 3.0 0.00 0.00 0.00 68 1023.6
20260901092034 65 58 0.0 3.0 0.00 0.00 0.00 68 1023.6
20260901091825 66 43 0.0 3.0 0.00 0.00 0.00 67 1023.7
20260901091259 65 103 0.0 3.0 0.00 0.00 0.00 68 1023.6
20260901091057 65 51 0.0 3.0 0.00 0.00 0.00 68 1023.5
20260901090857 65 56 0.0 3.0 0.00 0.00 0.00 69 1023.5
20260901090648 65 36 0.0 3.0 0.00 0.00 0.00 68 1023.6
20260901090445 65 44 0.0 3.0 0.00 0.00 0.00 67 1023.6
20260901090240 65 73 0.0 1.0 0.00 0.00 0.00 69 1023.6
20260901090037 65 262 0.0 1.0 0.00 0.00 0.00 69 1023.5
20260901085831 65 267 0.0 1.0 0.00 0.00 0.00 68 1023.6
20260901085632 65 56 0.0 2.0 0.00 0.00 0.00 68 1023.5
20260901084753 67 57 0.0 1.0 0.00 0.00 0.00 69 1023.5
20260901084545 67 58 0.0 1.0 0.00 0.00 0.00 68 1023.4
20260901084343 66 53 0.0 1.0 0.00 0.00 0.00 72 1023.4
20260901084138 66 82 0.0 0.0 0.00 0.00 0.00 71 1023.4
20260901083933 65 293 0.0 1.0 0.00 0.00 0.00 69 1023.4
20260901083729 65 297 0.0 0.0 0.00 0.00 0.00 70 1023.3
20260901083519 65 283 0.0 0.0 0.00 0.00 0.00 69 1023.4
20260901083311 65 62 0.0 0.0 0.00 0.00 0.00 72 1023.4
20260901082739 64 288 0.0 1.0 0.00 0.00 0.00 72 1023.5
20260901082530 63 288 0.0 1.0 0.00 0.00 0.00 72 1023.5
20260901082325 63 288 0.0 1.0 0.00 0.00 0.00 71 1023.5
20260901082121 64 287 0.0 1.0 0.00 0.00 0.00 71 1023.4
20260901081919 64 287 0.0 0.0 0.00 0.00 0.00 72 1023.4
20260901081716 64 287 0.0 1.0 0.00 0.00 0.00 73 1023.4
20260901081506 64 285 0.0 1.0 0.00 0.00 0.00 71 1023.4
20260901081257 64 287 0.0 1.0 0.00 0.00 0.00 71 1023.5
20260901080414 63 42 0.0 1.0 0.00 0.00 0.00 75 1023.4
20260901080206 63 290 0.0 0.0 0.00 0.00 0.00 72 1023.4
20260901080006 63 280 0.0 3.0 0.00 0.00 0.00 72 1023.3
20260901075805 63 280 0.0 3.0 0.00 0.00 0.00 72 1023.3
20260901075247 63 47 0.0 3.0 0.00 0.00 0.00 72 1023.3
20260901075041 63 15 0.0 3.0 0.00 0.00 0.00 72 1023.2
20260901074835 63 63 0.0 3.0 0.00 0.00 0.00 72 1023.2
20260901074629 63 65 0.0 3.0 0.00 0.00 0.00 72 1023.1
20260901074428 63 80 0.0 3.0 0.00 0.00 0.00 73 1023.1
20260901074227 63 53 0.0 3.0 0.00 0.00 0.00 74 1023.0
20260901074020 62 50 0.0 2.0 0.00 0.00 0.00 76 1023.1
20260901073446 62 68 0.0 2.0 0.00 0.00 0.00 71 1023.0
20260901073241 62 58 0.0 3.0 0.00 0.00 0.00 73 1023.0
20260901073041 62 114 0.0 3.0 0.00 0.00 0.00 73 1023.1
20260901072834 62 127 0.0 3.0 0.00 0.00 0.00 73 1023.0
20260901072625 61 69 0.0 3.0 0.00 0.00 0.00 72 1023.0
20260901072415 61 44 0.0 3.0 0.00 0.00 0.00 74 1023.0
20260901072215 61 115 0.0 3.0 0.00 0.00 0.00 74 1023.0
20260901072016 61 120 0.0 3.0 0.00 0.00 0.00 75 1023.0
20260901071812 61 70 0.0 3.0 0.00 0.00 0.00 74 1022.9
20260901071609 61 35 0.0 3.0 0.00 0.00 0.00 74 1023.0
20260901071407 61 79 0.0 3.0 0.00 0.00 0.00 74 1022.9
20260901071158 61 91 0.0 1.0 0.00 0.00 0.00 75 1023.0
20260901070949 61 64 0.0 1.0 0.00 0.00 0.00 76 1023.0
20260901070742 61 75 0.0 1.0 0.00 0.00 0.00 77 1022.9
20260901070542 60 78 0.0 2.0 0.00 0.00 0.00 78 1022.9
20260901070018 59 121 1.0 4.0 0.00 0.00 0.00 79 1022.9
20260901065818 59 120 1.0 4.0 0.00 0.00 0.00 79 1022.9
20260901065614 59 101 1.0 4.0 0.00 0.00 0.00 79 1022.9
20260901065415 59 120 1.0 4.0 0.00 0.00 0.00 79 1022.8
20260901065210 58 114 1.0 4.0 0.00 0.00 0.00 79 1022.9
20260901065008 58 116 2.0 4.0 0.00 0.00 0.00 80 1022.9
20260901064808 58 106 2.0 4.0 0.00 0.00 0.00 79 1022.9
20260901064602 58 129 2.0 4.0 0.00 0.00 0.00 80 1022.8
20260901064357 58 122 2.0 4.0 0.00 0.00 0.00 79 1022.8
20260901064157 58 128 2.0 4.0 0.00 0.00 0.00 81 1022.9
20260901063952 58 121 2.0 6.0 0.00 0.00 0.00 81 1022.8
20260901063749 57 82 2.0 6.0 0.00 0.00 0.00 80 1022.8
20260901063226 57 116 3.0 6.0 0.00 0.00 0.00 81 1022.9
20260901063021 57 98 4.0 6.0 0.00 0.00 0.00 81 1022.8
20260901062821 57 119 4.0 6.0 0.00 0.00 0.00 81 1022.8
20260901062613 57 111 4.0 6.0 0.00 0.00 0.00 81 1022.8
20260901062412 57 116 4.0 6.0 0.00 0.00 0.00 81 1022.8
20260901062202 57 122 4.0 6.0 0.00 0.00 0.00 81 1022.8
20260901062001 57 116 4.0 6.0 0.00 0.00 0.00 81 1022.9
20260901061800 57 125 4.0 6.0 0.00 0.00 0.00 81 1022.8
20260901061559 57 109 3.0 6.0 0.00 0.00 0.00 80 1022.8
20260901061400 57 115 3.0 6.0 0.00 0.00 0.00 80 1022.8
20260901061152 57 85 3.0 6.0 0.00 0.00 0.00 80 1022.8
20260901060629 56 94 3.0 6.0 0.00 0.00 0.00 81 1022.8
20260901060426 56 112 3.0 6.0 0.00 0.00 0.00 81 1022.6
20260901060219 56 128 4.0 6.0 0.00 0.00 0.00 82 1022.6
20260901060010 56 61 4.0 6.0 0.00 0.00 0.00 82 1022.7
20260901055803 56 94 3.0 6.0 0.00 0.00 0.00 82 1022.6
20260901055600 56 124 3.0 6.0 0.00 0.00 0.00 83 1022.6
20260901055352 55 111 3.0 6.0 0.00 0.00 0.00 82 1022.7
20260901055152 55 115 3.0 6.0 0.00 0.00 0.00 82 1022.7
20260901054620 55 114 3.0 6.0 0.00 0.00 0.00 83 1022.8
20260901054413 55 117 4.0 8.0 0.00 0.00 0.00 83 1022.8
20260901054206 55 120 4.0 8.0 0.00 0.00 0.00 83 1022.8
20260901053645 55 124 4.0 8.0 0.00 0.00 0.00 83 1022.8
20260901053443 54 122 5.0 8.0 0.00 0.00 0.00 83 1022.6
20260901053241 54 117 5.0 8.0 0.00 0.00 0.00 83 1022.7
20260901052723 54 105 4.0 8.0 0.00 0.00 0.00 83 1022.8
20260901052156 54 136 4.0 7.0 0.00 0.00 0.00 83 1022.7
20260901051625 54 120 4.0 6.0 0.00 0.00 0.00 84 1022.8
20260901051415 54 98 4.0 7.0 0.00 0.00 0.00 84 1022.7
20260901051206 53 108 4.0 7.0 0.00 0.00 0.00 85 1022.8
20260901050638 53 117 4.0 7.0 0.00 0.00 0.00 85 1022.8
20260901050429 53 91 4.0 7.0 0.00 0.00 0.00 85 1022.8
20260901050219 53 128 4.0 7.0 0.00 0.00 0.00 85 1022.8
20260901050011 53 130 4.0 7.0 0.00 0.00 0.00 85 1022.8
20260901045800 53 127 4.0 7.0 0.00 0.00 0.00 85 1022.8
20260901045550 53 87 4.0 7.0 0.00 0.00 0.00 85 1022.8
20260901045351 53 128 4.0 7.0 0.00 0.00 0.00 84 1022.7
20260901045144 53 100 4.0 7.0 0.00 0.00 0.00 84 1022.8
20260901044935 53 110 4.0 7.0 0.00 0.00 0.00 84 1022.8
20260901044400 54 110 4.0 7.0 0.00 0.00 0.00 84 1022.8
20260901044155 54 131 4.0 7.0 0.00 0.00 0.00 84 1022.9
20260901043949 54 117 4.0 7.0 0.00 0.00 0.00 84 1022.9
20260901043748 54 98 4.0 7.0 0.00 0.00 0.00 84 1022.8
20260901043542 54 126 4.0 7.0 0.00 0.00 0.00 83 1022.8
20260901043333 54 134 4.0 6.0 0.00 0.00 0.00 83 1022.8
20260901042812 54 92 3.0 6.0 0.00 0.00 0.00 83 1022.6
20260901042241 54 112 3.0 5.0 0.00 0.00 0.00 82 1022.7
20260901042037 54 124 3.0 5.0 0.00 0.00 0.00 82 1022.8
20260901041517 54 91 2.0 5.0 0.00 0.00 0.00 83 1022.6
20260901041310 54 117 2.0 4.0 0.00 0.00 0.00 83 1022.7
20260901041102 54 126 2.0 4.0 0.00 0.00 0.00 82 1022.7
20260901040858 54 111 2.0 4.0 0.00 0.00 0.00 82 1022.7
20260901040650 55 123 2.0 4.0 0.00 0.00 0.00 82 1022.6
20260901040449 55 117 2.0 4.0 0.00 0.00 0.00 82 1022.7
20260901040243 55 122 2.0 4.0 0.00 0.00 0.00 82 1022.7
20260901040036 55 131 2.0 4.0 0.00 0.00 0.00 82 1022.6
20260901035830 55 86 2.0 4.0 0.00 0.00 0.00 82 1022.7
20260901035623 55 128 2.0 4.0 0.00 0.00 0.00 82 1022.5
20260901035052 54 122 1.0 4.0 0.00 0.00 0.00 82 1022.6
20260901034847 54 113 1.0 4.0 0.00 0.00 0.00 82 1022.6
20260901034314 55 92 0.0 3.0 0.00 0.00 0.00 82 1022.7
20260901033751 55 105 0.0 3.0 0.00 0.00 0.00 81 1022.6
20260901033542 55 111 0.0 2.0 0.00 0.00 0.00 80 1022.6
20260901033334 55 94 0.0 2.0 0.00 0.00 0.00 80 1022.7
20260901033126 56 133 0.0 2.0 0.00 0.00 0.00 79 1022.7
20260901032918 56 101 0.0 2.0 0.00 0.00 0.00 78 1022.7
20260901032708 56 242 0.0 0.0 0.00 0.00 0.00 78 1022.6
20260901032509 56 242 0.0 0.0 0.00 0.00 0.00 78 1022.7
20260901032307 56 242 0.0 0.0 0.00 0.00 0.00 78 1022.8
20260901032059 56 242 0.0 0.0 0.00 0.00 0.00 78 1022.7
20260901031849 56 242 0.0 0.0 0.00 0.00 0.00 78 1022.7
20260901031641 56 242 0.0 1.0 0.00 0.00 0.00 79 1022.7
20260901031440 56 136 0.0 0.0 0.00 0.00 0.00 79 1022.7
20260901031239 56 136 0.0 0.0 0.00 0.00 0.00 79 1022.6
20260901030711 56 136 0.0 0.0 0.00 0.00 0.00 78 1022.7
20260901030511 56 113 0.0 1.0 0.00 0.00 0.00 78 1022.7
20260901030308 56 117 0.0 1.0 0.00 0.00 0.00 78 1022.8
20260901030108 57 130 0.0 1.0 0.00 0.00 0.00 77 1022.8
20260901025903 57 99 0.0 1.0 0.00 0.00 0.00 77 1022.8
20260901025656 57 165 0.0 0.0 0.00 0.00 0.00 76 1022.8
20260901025448 57 217 0.0 0.0 0.00 0.00 0.00 76 1022.7
20260901025244 57 217 0.0 0.0 0.00 0.00 0.00 76 1022.7
20260901024722 57 217 0.0 0.0 0.00 0.00 0.00 76 1022.7
20260901024520 57 217 0.0 0.0 0.00 0.00 0.00 76 1022.7
20260901024310 57 217 0.0 0.0 0.00 0.00 0.00 77 1022.7
20260901024107 57 217 0.0 0.0 0.00 0.00 0.00 77 1022.7
20260901023906 57 217 0.0 0.0 0.00 0.00 0.00 77 1022.7
20260901023707 57 219 0.0 0.0 0.00 0.00 0.00 77 1022.6
20260901022457 56 105 1.0 3.0 0.00 0.00 0.00 78 1022.8
20260901022254 56 114 1.0 3.0 0.00 0.00 0.00 78 1022.8
20260901022046 56 106 1.0 5.0 0.00 0.00 0.00 79 1022.8
20260901021838 56 105 1.0 5.0 0.00 0.00 0.00 79 1022.7
20260901021631 56 113 1.0 5.0 0.00 0.00 0.00 79 1022.7
20260901021424 56 84 2.0 5.0 0.00 0.00 0.00 79 1022.6
20260901021222 56 108 2.0 5.0 0.00 0.00 0.00 79 1022.7
20260901021017 56 72 2.0 5.0 0.00 0.00 0.00 79 1022.7
20260901020810 56 113 2.0 5.0 0.00 0.00 0.00 80 1022.8
20260901020247 56 116 1.0 5.0 0.00 0.00 0.00 79 1022.7
20260901020040 56 120 0.0 3.0 0.00 0.00 0.00 79 1022.6
20260901015831 56 115 0.0 3.0 0.00 0.00 0.00 78 1022.8
20260901015624 56 123 0.0 2.0 0.00 0.00 0.00 78 1022.7
20260901015419 57 129 0.0 2.0 0.00 0.00 0.00 78 1022.8
20260901015217 56 197 0.0 0.0 0.00 0.00 0.00 77 1022.6
20260901015016 56 196 0.0 0.0 0.00 0.00 0.00 78 1022.7
20260901014138 57 197 0.0 0.0 0.00 0.00 0.00 78 1022.8
20260901013931 57 196 0.0 0.0 0.00 0.00 0.00 77 1022.8
20260901013720 57 196 0.0 0.0 0.00 0.00 0.00 78 1022.9
20260901013519 57 196 0.0 0.0 0.00 0.00 0.00 78 1022.9
20260901013318 57 204 0.0 0.0 0.00 0.00 0.00 78 1022.9
20260901013109 57 195 0.0 0.0 0.00 0.00 0.00 78 1022.9
20260901012909 57 195 0.0 0.0 0.00 0.00 0.00 78 1023.0
20260901012701 57 195 0.0 0.0 0.00 0.00 0.00 78 1022.9
20260901012456 57 233 0.0 0.0 0.00 0.00 0.00 78 1022.9
20260901012246 57 112 0.0 0.0 0.00 0.00 0.00 78 1022.9
20260901012047 57 102 0.0 3.0 0.00 0.00 0.00 78 1022.9
20260901011521 57 120 0.0 3.0 0.00 0.00 0.00 77 1022.9
20260901011319 57 77 0.0 3.0 0.00 0.00 0.00 77 1022.9
20260901011118 57 140 0.0 1.0 0.00 0.00 0.00 77 1022.9
20260901010913 57 101 0.0 1.0 0.00 0.00 0.00 77 1022.9
20260901010709 57 104 0.0 1.0 0.00 0.00 0.00 77 1022.8
20260901010458 58 236 0.0 0.0 0.00 0.00 0.00 76 1022.9
20260901010255 58 236 0.0 0.0 0.00 0.00 0.00 77 1022.8
20260901010053 58 248 0.0 2.0 0.00 0.00 0.00 77 1022.8
20260901005529 58 239 1.0 4.0 0.00 0.00 0.00 77 1022.8
20260901005324 58 239 1.0 4.0 0.00 0.00 0.00 77 1022.8
20260901005126 58 240 1.0 4.0 0.00 0.00 0.00 77 1022.7
20260901004926 58 241 1.0 4.0 0.00 0.00 0.00 77 1022.8
20260901004720 58 236 1.0 4.0 0.00 0.00 0.00 77 1022.8
20260901004519 58 234 0.0 4.0 0.00 0.00 0.00 77 1022.8
20260901004309 58 253 0.0 4.0 0.00 0.00 0.00 77 1022.8
20260901004106 58 239 0.0 4.0 0.00 0.00 0.00 77 1022.9
20260901003901 58 221 1.0 4.0 0.00 0.00 0.00 77 1022.9
20260901003702 58 248 1.0 4.0 0.00 0.00 0.00 77 1022.9
20260901003148 58 231 2.0 4.0 0.00 0.00 0.00 76 1022.9
20260901002944 58 230 2.0 4.0 0.00 0.00 0.00 76 1022.8
20260901002743 58 232 2.0 4.0 0.00 0.00 0.00 76 1022.9
20260901002544 58 239 2.0 4.0 0.00 0.00 0.00 76 1022.9
20260901002338 58 240 2.0 4.0 0.00 0.00 0.00 76 1022.8
20260901002135 58 237 2.0 4.0 0.00 0.00 0.00 76 1022.9
20260901001925 58 240 2.0 4.0 0.00 0.00 0.00 75 1022.9
20260901001716 58 239 2.0 3.0 0.00 0.00 0.00 75 1022.9
20260901001150 59 238 1.0 3.0 0.00 0.00 0.00 75 1022.9
20260901000951 59 238 1.0 3.0 0.00 0.00 0.00 75 1022.9
20260901000751 59 234 1.0 3.0 0.00 0.00 0.00 75 1022.9
20260901000545 59 236 1.0 3.0 0.00 0.00 0.00 75 1022.9